| time (UTC) | temp C | wind direction | speed KPH | gust KPH | rain 1hr cm | rain 24hr cm | rain mn cm | humidity % | barometer mb |
| 20260508194500 | 20 | 325 | 1.6 | 1.6 | 0.00 | 0.00 | 0.00 | 37 | 1014.6 |
| 20260508193957 | 21 | 326 | 4.8 | 8.0 | 0.00 | 0.00 | 0.00 | 37 | 1014.7 |
| 20260508193453 | 21 | 302 | 3.2 | 3.2 | 0.00 | 0.00 | 0.00 | 38 | 1014.8 |
| 20260508192949 | 21 | 333 | 0.0 | 1.6 | 0.00 | 0.00 | 0.00 | 37 | 1014.7 |
| 20260508192446 | 21 | 309 | 0.0 | 1.6 | 0.00 | 0.00 | 0.00 | 39 | 1015.0 |
| 20260508191943 | 21 | 334 | 0.0 | 0.0 | 0.00 | 0.00 | 0.00 | 41 | 1015.0 |
| 20260508191441 | 20 | 322 | 1.6 | 1.6 | 0.00 | 0.00 | 0.00 | 39 | 1014.9 |
| 20260508190937 | 21 | 325 | 1.6 | 1.6 | 0.00 | 0.00 | 0.00 | 39 | 1015.2 |
| 20260508190435 | 20 | 342 | 0.0 | 1.6 | 0.00 | 0.00 | 0.00 | 41 | 1015.7 |
| 20260508185931 | 20 | 214 | 1.6 | 3.2 | 0.00 | 0.00 | 0.00 | 47 | 1015.6 |
| 20260508185428 | 20 | 324 | 1.6 | 1.6 | 0.00 | 0.00 | 0.00 | 41 | 1015.4 |
| 20260508184925 | 20 | 331 | 0.0 | 0.0 | 0.00 | 0.00 | 0.00 | 39 | 1015.7 |
| 20260508184422 | 20 | 106 | 4.8 | 4.8 | 0.00 | 0.00 | 0.00 | 43 | 1015.7 |
| 20260508183919 | 19 | 69 | 6.4 | 8.0 | 0.00 | 0.00 | 0.00 | 41 | 1016.0 |
| 20260508183416 | 20 | 303 | 1.6 | 3.2 | 0.00 | 0.00 | 0.00 | 48 | 1015.7 |
| 20260508182911 | 19 | 338 | 3.2 | 4.8 | 0.00 | 0.00 | 0.00 | 46 | 1015.7 |
| 20260508182408 | 19 | 331 | 1.6 | 1.6 | 0.00 | 0.00 | 0.00 | 44 | 1016.0 |
| 20260508181903 | 20 | 332 | 1.6 | 1.6 | 0.00 | 0.00 | 0.00 | 43 | 1016.1 |
| 20260508181400 | 19 | 330 | 0.0 | 0.0 | 0.00 | 0.00 | 0.00 | 45 | 1015.8 |
| 20260508180857 | 20 | 309 | 3.2 | 3.2 | 0.00 | 0.00 | 0.00 | 44 | 1016.0 |
| 20260508180354 | 20 | 302 | 1.6 | 1.6 | 0.00 | 0.00 | 0.00 | 49 | 1016.0 |
| 20260508175851 | 19 | 340 | 6.4 | 8.0 | 0.00 | 0.00 | 0.00 | 43 | 1016.0 |
| 20260508175347 | 18 | 352 | 3.2 | 3.2 | 0.00 | 0.00 | 0.00 | 44 | 1016.2 |
| 20260508174846 | 18 | 287 | 1.6 | 1.6 | 0.00 | 0.00 | 0.00 | 47 | 1016.4 |
| 20260508174343 | 18 | 338 | 4.8 | 8.0 | 0.00 | 0.00 | 0.00 | 47 | 1016.4 |
| 20260508173839 | 18 | 329 | 3.2 | 3.2 | 0.00 | 0.00 | 0.00 | 50 | 1016.6 |
| 20260508173336 | 19 | 334 | 6.4 | 8.0 | 0.00 | 0.00 | 0.00 | 51 | 1016.6 |
| 20260508172832 | 18 | 322 | 1.6 | 1.6 | 0.00 | 0.00 | 0.00 | 46 | 1016.8 |
| 20260508172329 | 18 | 342 | 4.8 | 4.8 | 0.00 | 0.00 | 0.00 | 46 | 1016.7 |
| 20260508171826 | 18 | 327 | 0.0 | 1.6 | 0.00 | 0.00 | 0.00 | 50 | 1016.8 |
| 20260508171322 | 18 | 332 | 1.6 | 3.2 | 0.00 | 0.00 | 0.00 | 47 | 1017.0 |
| 20260508170819 | 18 | 298 | 3.2 | 3.2 | 0.00 | 0.00 | 0.00 | 48 | 1017.0 |
| 20260508170317 | 17 | 329 | 3.2 | 4.8 | 0.00 | 0.00 | 0.00 | 50 | 1017.3 |
| 20260508165813 | 17 | 331 | 1.6 | 1.6 | 0.00 | 0.00 | 0.00 | 48 | 1017.4 |
| 20260508165311 | 17 | 28 | 1.6 | 1.6 | 0.00 | 0.00 | 0.00 | 52 | 1017.6 |
| 20260508164807 | 17 | 311 | 3.2 | 3.2 | 0.00 | 0.00 | 0.00 | 51 | 1017.5 |
| 20260508164303 | 17 | 332 | 1.6 | 1.6 | 0.00 | 0.00 | 0.00 | 55 | 1017.6 |
| 20260508163802 | 16 | 338 | 4.8 | 8.0 | 0.00 | 0.00 | 0.00 | 54 | 1017.8 |
| 20260508163259 | 17 | 91 | 6.4 | 8.0 | 0.00 | 0.00 | 0.00 | 58 | 1018.0 |
| 20260508162754 | 17 | 337 | 0.0 | 1.6 | 0.00 | 0.00 | 0.00 | 52 | 1017.9 |
| 20260508162251 | 17 | 334 | 1.6 | 1.6 | 0.00 | 0.00 | 0.00 | 52 | 1018.3 |
| 20260508161749 | 16 | 326 | 1.6 | 1.6 | 0.00 | 0.00 | 0.00 | 52 | 1018.2 |
| 20260508161246 | 17 | 169 | 6.4 | 9.7 | 0.00 | 0.00 | 0.00 | 52 | 1018.3 |
| 20260508160744 | 17 | 330 | 3.2 | 3.2 | 0.00 | 0.00 | 0.00 | 56 | 1018.5 |
| 20260508160242 | 16 | 331 | 0.0 | 1.6 | 0.00 | 0.00 | 0.00 | 58 | 1018.7 |
| 20260508155738 | 16 | 325 | 0.0 | 1.6 | 0.00 | 0.00 | 0.00 | 56 | 1018.6 |
| 20260508155235 | 16 | 332 | 1.6 | 1.6 | 0.00 | 0.00 | 0.00 | 55 | 1018.6 |
| 20260508154732 | 16 | 30 | 0.0 | 1.6 | 0.00 | 0.00 | 0.00 | 54 | 1018.7 |
| 20260508154230 | 15 | 62 | 3.2 | 4.8 | 0.00 | 0.00 | 0.00 | 57 | 1018.7 |
| 20260508153726 | 15 | 75 | 3.2 | 3.2 | 0.00 | 0.00 | 0.00 | 63 | 1018.9 |
| 20260508153223 | 15 | 356 | 1.6 | 1.6 | 0.00 | 0.00 | 0.00 | 62 | 1018.9 |
| 20260508152720 | 15 | 301 | 4.8 | 4.8 | 0.00 | 0.00 | 0.00 | 68 | 1018.8 |
| 20260508152215 | 15 | 325 | 1.6 | 1.6 | 0.00 | 0.00 | 0.00 | 72 | 1018.8 |
| 20260508151712 | 15 | 10 | 1.6 | 1.6 | 0.00 | 0.00 | 0.00 | 78 | 1019.1 |
| 20260508151209 | 15 | 326 | 0.0 | 0.0 | 0.00 | 0.00 | 0.00 | 78 | 1019.0 |
| 20260508150705 | 14 | 343 | 0.0 | 1.6 | 0.00 | 0.00 | 0.00 | 79 | 1019.2 |
| 20260508150202 | 13 | 30 | 0.0 | 1.6 | 0.00 | 0.00 | 0.00 | 81 | 1018.9 |
| 20260508145658 | 13 | 1 | 1.6 | 1.6 | 0.00 | 0.00 | 0.00 | 81 | 1019.1 |
| 20260508145154 | 13 | 319 | 3.2 | 3.2 | 0.00 | 0.00 | 0.00 | 84 | 1019.1 |
| 20260508144652 | 12 | 343 | 0.0 | 0.0 | 0.00 | 0.00 | 0.00 | 87 | 1019.0 |
| 20260508144149 | 12 | 340 | 4.8 | 4.8 | 0.00 | 0.00 | 0.00 | 85 | 1019.3 |
| 20260508143647 | 11 | 98 | 6.4 | 8.0 | 0.00 | 0.00 | 0.00 | 88 | 1019.1 |
| 20260508143144 | 12 | 328 | 1.6 | 3.2 | 0.00 | 0.00 | 0.00 | 88 | 1019.0 |
| 20260508142640 | 12 | 345 | 0.0 | 1.6 | 0.00 | 0.00 | 0.00 | 91 | 1019.2 |
| 20260508142137 | 11 | 326 | 3.2 | 3.2 | 0.00 | 0.00 | 0.00 | 93 | 1019.1 |
| 20260508141633 | 11 | 340 | 0.0 | 1.6 | 0.00 | 0.00 | 0.00 | 97 | 1018.9 |
| 20260508141131 | 10 | 67 | 1.6 | 3.2 | 0.00 | 0.00 | 0.00 | 99 | 1019.2 |
| 20260508140628 | 9 | 341 | 0.0 | 0.0 | 0.00 | 0.00 | 0.00 | 99 | 1019.1 |
| 20260508140125 | 9 | 329 | 1.6 | 1.6 | 0.00 | 0.00 | 0.00 | 99 | 1019.2 |
| 20260508135620 | 9 | 338 | 0.0 | 0.0 | 0.00 | 0.00 | 0.00 | 99 | 1019.0 |
| 20260508135116 | 9 | 345 | 0.0 | 0.0 | 0.00 | 0.00 | 0.00 | 99 | 1019.2 |
| 20260508134614 | 8 | 42 | 4.8 | 4.8 | 0.00 | 0.00 | 0.00 | 99 | 1019.2 |
| 20260508134111 | 8 | 41 | 4.8 | 4.8 | 0.00 | 0.00 | 0.00 | 99 | 1019.1 |
| 20260508133607 | 8 | 39 | 3.2 | 3.2 | 0.00 | 0.00 | 0.00 | 99 | 1019.1 |
| 20260508133104 | 8 | 325 | 0.0 | 0.0 | 0.00 | 0.00 | 0.00 | 99 | 1019.2 |
| 20260508132602 | 8 | 12 | 1.6 | 1.6 | 0.00 | 0.00 | 0.00 | 99 | 1019.2 |
| 20260508132059 | 8 | 15 | 1.6 | 1.6 | 0.00 | 0.00 | 0.00 | 99 | 1019.3 |
| 20260508131554 | 7 | 346 | 1.6 | 1.6 | 0.00 | 0.00 | 0.00 | 99 | 1019.1 |
| 20260508131051 | 7 | 51 | 1.6 | 3.2 | 0.00 | 0.00 | 0.00 | 99 | 1019.0 |
| 20260508130548 | 7 | 342 | 1.6 | 1.6 | 0.00 | 0.00 | 0.00 | 99 | 1019.0 |
| 20260508130045 | 7 | 347 | 1.6 | 1.6 | 0.00 | 0.00 | 0.00 | 99 | 1019.2 |
| 20260508125540 | 7 | 333 | 0.0 | 0.0 | 0.00 | 0.00 | 0.00 | 99 | 1019.2 |
| 20260508125038 | 7 | 33 | 0.0 | 1.6 | 0.00 | 0.00 | 0.00 | 99 | 1019.0 |
| 20260508124536 | 6 | 9 | 0.0 | 1.6 | 0.00 | 0.00 | 0.00 | 99 | 1019.1 |
| 20260508124033 | 6 | 318 | 0.0 | 1.6 | 0.00 | 0.00 | 0.00 | 99 | 1019.1 |
| 20260508123531 | 6 | 76 | 1.6 | 3.2 | 0.00 | 0.00 | 0.00 | 99 | 1019.0 |
| 20260508123027 | 6 | 335 | 0.0 | 0.0 | 0.00 | 0.00 | 0.00 | 99 | 1018.8 |
| 20260508122525 | 6 | 356 | 0.0 | 0.0 | 0.00 | 0.00 | 0.00 | 99 | 1018.9 |
| 20260508122021 | 6 | 351 | 1.6 | 1.6 | 0.00 | 0.00 | 0.00 | 99 | 1018.7 |
| 20260508121520 | 5 | 31 | 1.6 | 3.2 | 0.00 | 0.00 | 0.00 | 99 | 1018.8 |
| 20260508121018 | 5 | 86 | 4.8 | 4.8 | 0.00 | 0.00 | 0.00 | 99 | 1018.6 |
| 20260508120514 | 5 | 61 | 4.8 | 4.8 | 0.00 | 0.00 | 0.00 | 99 | 1018.5 |
| 20260508120013 | 5 | 67 | 1.6 | 3.2 | 0.00 | 0.00 | 0.00 | 99 | 1018.7 |
| 20260508115510 | 5 | 348 | 1.6 | 1.6 | 0.00 | 0.00 | 0.00 | 99 | 1018.5 |
| 20260508115006 | 5 | 19 | 1.6 | 1.6 | 0.00 | 0.00 | 0.00 | 99 | 1018.7 |
| 20260508114504 | 5 | 346 | 0.0 | 1.6 | 0.00 | 0.00 | 0.00 | 99 | 1018.4 |
| 20260508114000 | 5 | 2 | 0.0 | 1.6 | 0.00 | 0.00 | 0.00 | 99 | 1018.2 |
| 20260508113458 | 5 | 333 | 0.0 | 0.0 | 0.00 | 0.00 | 0.00 | 99 | 1018.0 |
| 20260508112954 | 5 | 333 | 0.0 | 0.0 | 0.00 | 0.00 | 0.00 | 99 | 1018.3 |
| 20260508112451 | 5 | 331 | 0.0 | 0.0 | 0.00 | 0.00 | 0.00 | 99 | 1017.9 |
| 20260508111948 | 5 | 344 | 0.0 | 0.0 | 0.00 | 0.00 | 0.00 | 99 | 1018.0 |
| 20260508111445 | 5 | 338 | 0.0 | 0.0 | 0.00 | 0.00 | 0.00 | 99 | 1018.2 |
| 20260508110942 | 4 | 334 | 0.0 | 0.0 | 0.00 | 0.00 | 0.00 | 99 | 1017.9 |
| 20260508110440 | 4 | 331 | 0.0 | 0.0 | 0.00 | 0.00 | 0.00 | 99 | 1017.8 |
| 20260508105939 | 4 | 335 | 0.0 | 0.0 | 0.00 | 0.00 | 0.00 | 99 | 1017.5 |
| 20260508105436 | 4 | 338 | 0.0 | 0.0 | 0.00 | 0.00 | 0.00 | 99 | 1017.6 |
| 20260508104933 | 4 | 330 | 0.0 | 0.0 | 0.00 | 0.00 | 0.00 | 99 | 1017.6 |
| 20260508104431 | 4 | 336 | 0.0 | 0.0 | 0.00 | 0.00 | 0.00 | 99 | 1017.2 |
| 20260508103927 | 4 | 348 | 0.0 | 0.0 | 0.00 | 0.00 | 0.00 | 99 | 1017.3 |
| 20260508103425 | 4 | 344 | 0.0 | 0.0 | 0.00 | 0.00 | 0.00 | 99 | 1017.2 |
| 20260508102921 | 4 | 336 | 0.0 | 0.0 | 0.00 | 0.00 | 0.00 | 99 | 1017.2 |
| 20260508102420 | 4 | 336 | 0.0 | 0.0 | 0.00 | 0.00 | 0.00 | 99 | 1017.4 |
| 20260508101917 | 4 | 347 | 0.0 | 0.0 | 0.00 | 0.00 | 0.00 | 99 | 1017.3 |
| 20260508101414 | 4 | 1 | 0.0 | 1.6 | 0.00 | 0.00 | 0.00 | 99 | 1017.3 |
| 20260508100911 | 4 | 333 | 0.0 | 0.0 | 0.00 | 0.00 | 0.00 | 99 | 1016.9 |
| 20260508100410 | 5 | 332 | 0.0 | 0.0 | 0.00 | 0.00 | 0.00 | 99 | 1016.9 |
| 20260508095910 | 5 | 335 | 0.0 | 0.0 | 0.00 | 0.00 | 0.00 | 99 | 1017.1 |
| 20260508095409 | 5 | 345 | 0.0 | 0.0 | 0.00 | 0.00 | 0.00 | 99 | 1017.0 |
| 20260508094905 | 5 | 351 | 0.0 | 0.0 | 0.00 | 0.00 | 0.00 | 99 | 1017.3 |
| 20260508094402 | 5 | 353 | 1.6 | 1.6 | 0.00 | 0.00 | 0.00 | 99 | 1017.2 |
| 20260508093859 | 5 | 345 | 0.0 | 0.0 | 0.00 | 0.00 | 0.00 | 99 | 1017.1 |
| 20260508093357 | 5 | 333 | 0.0 | 0.0 | 0.00 | 0.00 | 0.00 | 99 | 1017.3 |
| 20260508092854 | 5 | 340 | 0.0 | 0.0 | 0.00 | 0.00 | 0.00 | 99 | 1017.2 |
| 20260508092352 | 5 | 348 | 0.0 | 0.0 | 0.00 | 0.00 | 0.00 | 99 | 1017.1 |
| 20260508091850 | 5 | 1 | 1.6 | 3.2 | 0.00 | 0.00 | 0.00 | 99 | 1017.1 |
| 20260508091345 | 6 | 337 | 0.0 | 0.0 | 0.00 | 0.00 | 0.00 | 99 | 1017.0 |
| 20260508090844 | 6 | 342 | 0.0 | 0.0 | 0.00 | 0.00 | 0.00 | 99 | 1016.9 |
| 20260508090342 | 6 | 338 | 0.0 | 0.0 | 0.00 | 0.00 | 0.00 | 99 | 1017.3 |
| 20260508085837 | 6 | 329 | 0.0 | 0.0 | 0.00 | 0.00 | 0.00 | 99 | 1016.9 |
| 20260508085335 | 6 | 335 | 0.0 | 0.0 | 0.00 | 0.00 | 0.00 | 99 | 1016.9 |
| 20260508084831 | 6 | 341 | 0.0 | 0.0 | 0.00 | 0.00 | 0.00 | 99 | 1016.9 |
| 20260508084328 | 6 | 334 | 0.0 | 0.0 | 0.00 | 0.00 | 0.00 | 99 | 1016.8 |
| 20260508083826 | 6 | 333 | 0.0 | 0.0 | 0.00 | 0.00 | 0.00 | 99 | 1016.9 |
| 20260508083323 | 6 | 331 | 0.0 | 0.0 | 0.00 | 0.00 | 0.00 | 99 | 1016.8 |
| 20260508082823 | 6 | 333 | 0.0 | 0.0 | 0.00 | 0.00 | 0.00 | 99 | 1016.9 |
| 20260508082320 | 6 | 332 | 0.0 | 0.0 | 0.00 | 0.00 | 0.00 | 99 | 1016.8 |
| 20260508081817 | 6 | 11 | 1.6 | 1.6 | 0.00 | 0.00 | 0.00 | 99 | 1016.9 |
| 20260508081314 | 6 | 342 | 0.0 | 0.0 | 0.00 | 0.00 | 0.00 | 99 | 1016.8 |
| 20260508080812 | 6 | 339 | 0.0 | 1.6 | 0.00 | 0.00 | 0.00 | 99 | 1016.8 |
| 20260508080309 | 6 | 349 | 0.0 | 1.6 | 0.00 | 0.00 | 0.00 | 99 | 1016.7 |
| 20260508075806 | 7 | 6 | 0.0 | 1.6 | 0.00 | 0.00 | 0.00 | 99 | 1016.8 |
| 20260508075308 | 7 | 349 | 0.0 | 0.0 | 0.00 | 0.00 | 0.00 | 99 | 1016.8 |
| 20260508074801 | 7 | 355 | 0.0 | 0.0 | 0.00 | 0.00 | 0.00 | 99 | 1016.8 |
| 20260508074257 | 7 | 357 | 1.6 | 1.6 | 0.00 | 0.00 | 0.00 | 99 | 1016.7 |
| 20260508073754 | 7 | 351 | 0.0 | 0.0 | 0.00 | 0.00 | 0.00 | 99 | 1017.2 |
| 20260508073253 | 7 | 358 | 0.0 | 0.0 | 0.00 | 0.00 | 0.00 | 99 | 1017.0 |
| 20260508072748 | 7 | 347 | 0.0 | 0.0 | 0.00 | 0.00 | 0.00 | 99 | 1016.8 |
| 20260508072245 | 7 | 30 | 3.2 | 3.2 | 0.00 | 0.00 | 0.00 | 99 | 1016.9 |
| 20260508071742 | 7 | 358 | 0.0 | 0.0 | 0.00 | 0.00 | 0.00 | 99 | 1016.6 |
| 20260508071241 | 7 | 351 | 0.0 | 0.0 | 0.00 | 0.00 | 0.00 | 99 | 1016.7 |
| 20260508070738 | 7 | 336 | 0.0 | 0.0 | 0.00 | 0.00 | 0.00 | 99 | 1016.9 |
| 20260508070236 | 7 | 341 | 0.0 | 0.0 | 0.00 | 0.00 | 0.00 | 99 | 1016.9 |
| 20260508065733 | 7 | 353 | 0.0 | 0.0 | 0.00 | 0.00 | 0.00 | 99 | 1016.8 |
| 20260508065231 | 7 | 333 | 0.0 | 0.0 | 0.00 | 0.00 | 0.00 | 99 | 1016.9 |
| 20260508064728 | 7 | 340 | 0.0 | 0.0 | 0.00 | 0.00 | 0.00 | 99 | 1016.9 |
| 20260508064227 | 7 | 326 | 0.0 | 0.0 | 0.00 | 0.00 | 0.00 | 99 | 1016.7 |
| 20260508063724 | 7 | 341 | 0.0 | 0.0 | 0.00 | 0.00 | 0.00 | 99 | 1016.7 |
| 20260508063221 | 7 | 319 | 0.0 | 0.0 | 0.00 | 0.00 | 0.00 | 99 | 1016.6 |
| 20260508062719 | 7 | 338 | 0.0 | 0.0 | 0.00 | 0.00 | 0.00 | 99 | 1016.6 |
| 20260508062216 | 7 | 332 | 0.0 | 0.0 | 0.00 | 0.00 | 0.00 | 99 | 1016.5 |
| 20260508061713 | 7 | 331 | 0.0 | 0.0 | 0.00 | 0.00 | 0.00 | 99 | 1016.7 |
| 20260508061210 | 7 | 331 | 0.0 | 0.0 | 0.00 | 0.00 | 0.00 | 99 | 1016.7 |
| 20260508060706 | 7 | 330 | 0.0 | 0.0 | 0.00 | 0.00 | 0.00 | 99 | 1016.9 |
| 20260508060204 | 7 | 330 | 0.0 | 0.0 | 0.00 | 0.00 | 0.00 | 99 | 1017.1 |
| 20260508055659 | 7 | 330 | 0.0 | 0.0 | 0.00 | 0.00 | 0.00 | 99 | 1016.9 |
| 20260508055156 | 7 | 330 | 0.0 | 0.0 | 0.00 | 0.00 | 0.00 | 99 | 1016.8 |
| 20260508054653 | 7 | 330 | 0.0 | 0.0 | 0.00 | 0.00 | 0.00 | 99 | 1016.9 |
| 20260508054151 | 7 | 330 | 0.0 | 0.0 | 0.00 | 0.00 | 0.00 | 99 | 1016.9 |
| 20260508053647 | 7 | 330 | 0.0 | 0.0 | 0.00 | 0.00 | 0.00 | 99 | 1017.1 |
| 20260508053145 | 7 | 332 | 0.0 | 0.0 | 0.00 | 0.00 | 0.00 | 99 | 1016.9 |
| 20260508052642 | 7 | 333 | 0.0 | 0.0 | 0.00 | 0.00 | 0.00 | 99 | 1017.0 |
| 20260508052139 | 7 | 339 | 0.0 | 0.0 | 0.00 | 0.00 | 0.00 | 99 | 1017.0 |
| 20260508051635 | 7 | 331 | 0.0 | 0.0 | 0.00 | 0.00 | 0.00 | 99 | 1016.8 |
| 20260508051131 | 8 | 334 | 0.0 | 0.0 | 0.00 | 0.00 | 0.00 | 99 | 1016.9 |
| 20260508050627 | 8 | 333 | 0.0 | 0.0 | 0.00 | 0.00 | 0.00 | 99 | 1016.9 |
| 20260508050125 | 8 | 332 | 0.0 | 0.0 | 0.00 | 0.00 | 0.00 | 99 | 1016.9 |
| 20260508045620 | 8 | 332 | 0.0 | 0.0 | 0.00 | 0.00 | 0.00 | 99 | 1016.8 |
| 20260508045119 | 8 | 340 | 0.0 | 0.0 | 0.00 | 0.00 | 0.00 | 99 | 1016.8 |
| 20260508044616 | 8 | 331 | 0.0 | 0.0 | 0.00 | 0.00 | 0.00 | 99 | 1016.7 |
| 20260508044111 | 8 | 331 | 0.0 | 0.0 | 0.00 | 0.00 | 0.00 | 99 | 1016.6 |
| 20260508043608 | 8 | 334 | 0.0 | 0.0 | 0.00 | 0.00 | 0.00 | 99 | 1016.4 |
| 20260508043106 | 8 | 336 | 0.0 | 0.0 | 0.00 | 0.00 | 0.00 | 99 | 1016.4 |
| 20260508042602 | 8 | 333 | 0.0 | 0.0 | 0.00 | 0.00 | 0.00 | 99 | 1016.4 |
| 20260508042100 | 8 | 332 | 0.0 | 0.0 | 0.00 | 0.00 | 0.00 | 99 | 1016.5 |
| 20260508041556 | 8 | 332 | 0.0 | 0.0 | 0.00 | 0.00 | 0.00 | 99 | 1016.4 |
| 20260508041052 | 8 | 335 | 0.0 | 0.0 | 0.00 | 0.00 | 0.00 | 99 | 1016.5 |
| 20260508040549 | 8 | 335 | 0.0 | 0.0 | 0.00 | 0.00 | 0.00 | 99 | 1016.3 |
| 20260508040047 | 8 | 333 | 0.0 | 0.0 | 0.00 | 0.23 | 0.23 | 99 | 1016.2 |
| 20260508035544 | 9 | 333 | 0.0 | 0.0 | 0.00 | 0.23 | 0.23 | 99 | 1016.5 |
| 20260508035041 | 9 | 334 | 0.0 | 0.0 | 0.00 | 0.23 | 0.23 | 99 | 1016.2 |
| 20260508034538 | 9 | 331 | 0.0 | 0.0 | 0.00 | 0.23 | 0.23 | 99 | 1016.1 |
| 20260508034035 | 9 | 331 | 0.0 | 0.0 | 0.00 | 0.23 | 0.23 | 99 | 1016.2 |
| 20260508033533 | 9 | 332 | 0.0 | 0.0 | 0.00 | 0.23 | 0.23 | 99 | 1016.4 |
| 20260508033031 | 10 | 331 | 0.0 | 0.0 | 0.00 | 0.23 | 0.23 | 99 | 1016.3 |
| 20260508032527 | 10 | 331 | 0.0 | 0.0 | 0.00 | 0.23 | 0.23 | 99 | 1016.4 |
| 20260508032025 | 10 | 337 | 0.0 | 0.0 | 0.00 | 0.23 | 0.23 | 99 | 1016.2 |
| 20260508031521 | 10 | 334 | 0.0 | 0.0 | 0.00 | 0.23 | 0.23 | 99 | 1016.1 |
| 20260508031017 | 10 | 333 | 0.0 | 0.0 | 0.00 | 0.23 | 0.23 | 99 | 1016.3 |
| 20260508030514 | 10 | 335 | 0.0 | 0.0 | 0.00 | 0.23 | 0.23 | 99 | 1016.0 |
| 20260508030013 | 10 | 343 | 0.0 | 0.0 | 0.00 | 0.23 | 0.23 | 99 | 1016.4 |
| 20260508025508 | 10 | 341 | 0.0 | 0.0 | 0.00 | 0.23 | 0.23 | 99 | 1016.0 |
| 20260508025005 | 10 | 335 | 0.0 | 0.0 | 0.00 | 0.23 | 0.23 | 99 | 1015.8 |
| 20260508024501 | 10 | 332 | 0.0 | 0.0 | 0.00 | 0.23 | 0.23 | 99 | 1015.8 |
| 20260508023958 | 10 | 332 | 0.0 | 0.0 | 0.00 | 0.23 | 0.23 | 98 | 1015.4 |
| 20260508023454 | 10 | 330 | 0.0 | 0.0 | 0.00 | 0.23 | 0.23 | 98 | 1015.6 |
| 20260508022952 | 10 | 340 | 0.0 | 0.0 | 0.00 | 0.23 | 0.23 | 98 | 1015.7 |
| 20260508022447 | 10 | 338 | 0.0 | 0.0 | 0.00 | 0.23 | 0.23 | 98 | 1015.7 |
| 20260508021944 | 10 | 332 | 0.0 | 0.0 | 0.00 | 0.23 | 0.23 | 98 | 1015.7 |
| 20260508021441 | 10 | 334 | 0.0 | 0.0 | 0.00 | 0.23 | 0.23 | 98 | 1015.6 |
| 20260508020937 | 10 | 337 | 0.0 | 0.0 | 0.00 | 0.23 | 0.23 | 98 | 1015.4 |
| 20260508020435 | 11 | 6 | 1.6 | 1.6 | 0.00 | 0.23 | 0.23 | 98 | 1015.2 |
| 20260508015931 | 11 | 341 | 0.0 | 0.0 | 0.00 | 0.23 | 0.23 | 98 | 1015.4 |
| 20260508015429 | 11 | 335 | 0.0 | 0.0 | 0.00 | 0.23 | 0.23 | 97 | 1015.2 |
| 20260508014926 | 11 | 330 | 0.0 | 0.0 | 0.00 | 0.23 | 0.23 | 97 | 1015.1 |
| 20260508014423 | 11 | 329 | 0.0 | 0.0 | 0.00 | 0.23 | 0.23 | 97 | 1014.9 |
| 20260508013918 | 11 | 331 | 0.0 | 0.0 | 0.00 | 0.23 | 0.23 | 97 | 1015.0 |
| 20260508013414 | 11 | 332 | 0.0 | 0.0 | 0.00 | 0.23 | 0.23 | 96 | 1014.9 |
| 20260508012912 | 11 | 330 | 0.0 | 0.0 | 0.00 | 0.23 | 0.23 | 96 | 1014.7 |
| 20260508012409 | 11 | 333 | 0.0 | 0.0 | 0.00 | 0.23 | 0.23 | 96 | 1014.7 |
| 20260508011906 | 11 | 336 | 0.0 | 0.0 | 0.00 | 0.23 | 0.23 | 96 | 1014.6 |
| 20260508011404 | 11 | 335 | 0.0 | 0.0 | 0.00 | 0.23 | 0.23 | 96 | 1014.4 |
| 20260508010901 | 11 | 335 | 0.0 | 0.0 | 0.00 | 0.23 | 0.23 | 95 | 1014.3 |
| 20260508010358 | 11 | 331 | 0.0 | 0.0 | 0.00 | 0.23 | 0.23 | 95 | 1014.4 |
| 20260508005855 | 12 | 329 | 1.6 | 1.6 | 0.00 | 0.23 | 0.23 | 95 | 1014.4 |
| 20260508005352 | 12 | 331 | 0.0 | 0.0 | 0.00 | 0.23 | 0.23 | 94 | 1014.3 |
| 20260508004848 | 12 | 330 | 0.0 | 0.0 | 0.00 | 0.23 | 0.23 | 93 | 1014.0 |
| 20260508004344 | 12 | 333 | 0.0 | 1.6 | 0.00 | 0.23 | 0.23 | 93 | 1014.1 |
| 20260508003841 | 12 | 330 | 0.0 | 0.0 | 0.00 | 0.23 | 0.23 | 92 | 1014.0 |
| 20260508003338 | 12 | 330 | 0.0 | 0.0 | 0.00 | 0.23 | 0.23 | 92 | 1014.1 |
| 20260508002835 | 12 | 329 | 0.0 | 0.0 | 0.00 | 0.23 | 0.23 | 92 | 1014.1 |
| 20260508002332 | 12 | 331 | 1.6 | 1.6 | 0.00 | 0.23 | 0.23 | 91 | 1013.8 |
| 20260508001828 | 13 | 333 | 0.0 | 0.0 | 0.00 | 0.23 | 0.23 | 90 | 1013.5 |
| 20260508001324 | 13 | 344 | 1.6 | 1.6 | 0.00 | 0.23 | 0.23 | 88 | 1013.8 |
| 20260508000821 | 13 | 346 | 0.0 | 1.6 | 0.00 | 0.23 | 0.23 | 88 | 1014.0 |
| 20260508000319 | 13 | 343 | 0.0 | 0.0 | 0.00 | 0.23 | 0.23 | 87 | 1013.8 |
| 20260507235814 | 13 | 345 | 1.6 | 1.6 | 0.00 | 0.23 | 0.23 | 86 | 1013.7 |
| 20260507235311 | 13 | 334 | 0.0 | 0.0 | 0.00 | 0.23 | 0.23 | 85 | 1014.0 |
| 20260507234808 | 14 | 344 | 0.0 | 0.0 | 0.00 | 0.23 | 0.23 | 84 | 1013.9 |
| 20260507234305 | 14 | 55 | 1.6 | 3.2 | 0.00 | 0.23 | 0.23 | 83 | 1013.9 |
| 20260507233801 | 14 | 293 | 0.0 | 0.0 | 0.00 | 0.23 | 0.23 | 81 | 1013.9 |
| 20260507233259 | 15 | 335 | 1.6 | 1.6 | 0.00 | 0.23 | 0.23 | 80 | 1013.8 |
| 20260507232757 | 15 | 335 | 0.0 | 0.0 | 0.00 | 0.23 | 0.23 | 80 | 1013.8 |
| 20260507232253 | 15 | 329 | 0.0 | 0.0 | 0.00 | 0.23 | 0.23 | 79 | 1014.0 |
| 20260507231750 | 15 | 340 | 1.6 | 1.6 | 0.00 | 0.23 | 0.23 | 78 | 1013.9 |
| 20260507231247 | 15 | 330 | 0.0 | 0.0 | 0.00 | 0.23 | 0.23 | 78 | 1014.1 |
| 20260507230743 | 15 | 327 | 0.0 | 1.6 | 0.00 | 0.23 | 0.23 | 78 | 1014.0 |
| 20260507230241 | 15 | 331 | 0.0 | 0.0 | 0.00 | 0.23 | 0.23 | 78 | 1013.9 |
| 20260507225740 | 15 | 327 | 3.2 | 3.2 | 0.00 | 0.23 | 0.23 | 78 | 1014.0 |
| 20260507225237 | 15 | 335 | 1.6 | 3.2 | 0.00 | 0.23 | 0.23 | 76 | 1014.0 |
| 20260507224732 | 15 | 328 | 0.0 | 1.6 | 0.00 | 0.23 | 0.23 | 75 | 1014.1 |
| 20260507224230 | 16 | 325 | 1.6 | 3.2 | 0.00 | 0.23 | 0.23 | 75 | 1014.2 |
| 20260507223726 | 15 | 315 | 0.0 | 1.6 | 0.00 | 0.23 | 0.23 | 77 | 1013.9 |
| 20260507223222 | 15 | 322 | 1.6 | 1.6 | 0.00 | 0.23 | 0.23 | 78 | 1013.8 |
| 20260507222719 | 15 | 327 | 1.6 | 1.6 | 0.00 | 0.23 | 0.23 | 79 | 1013.9 |
| 20260507222216 | 15 | 328 | 1.6 | 1.6 | 0.00 | 0.23 | 0.23 | 77 | 1013.6 |
| 20260507221712 | 15 | 331 | 0.0 | 0.0 | 0.00 | 0.23 | 0.23 | 78 | 1013.8 |
| 20260507221209 | 15 | 335 | 0.0 | 1.6 | 0.00 | 0.23 | 0.23 | 77 | 1013.7 |
| 20260507220705 | 15 | 328 | 0.0 | 0.0 | 0.00 | 0.23 | 0.23 | 76 | 1013.6 |
| 20260507220204 | 15 | 330 | 1.6 | 1.6 | 0.00 | 0.23 | 0.23 | 78 | 1013.6 |
| 20260507215659 | 15 | 335 | 0.0 | 0.0 | 0.00 | 0.23 | 0.23 | 75 | 1013.6 |
| 20260507215157 | 15 | 315 | 0.0 | 1.6 | 0.00 | 0.23 | 0.23 | 75 | 1013.7 |
| 20260507214654 | 15 | 323 | 0.0 | 0.0 | 0.00 | 0.23 | 0.23 | 77 | 1013.6 |
| 20260507214151 | 15 | 333 | 1.6 | 1.6 | 0.00 | 0.23 | 0.23 | 77 | 1013.5 |
| 20260507213646 | 15 | 282 | 1.6 | 1.6 | 0.00 | 0.23 | 0.23 | 75 | 1013.4 |
| 20260507213144 | 16 | 341 | 4.8 | 4.8 | 0.00 | 0.23 | 0.23 | 73 | 1013.5 |
| 20260507212640 | 15 | 328 | 1.6 | 3.2 | 0.00 | 0.23 | 0.23 | 75 | 1013.5 |
| 20260507212137 | 15 | 265 | 1.6 | 3.2 | 0.00 | 0.23 | 0.23 | 77 | 1013.6 |
| 20260507211634 | 14 | 331 | 0.0 | 0.0 | 0.00 | 0.23 | 0.23 | 78 | 1013.4 |
| 20260507211129 | 14 | 334 | 1.6 | 1.6 | 0.00 | 0.23 | 0.23 | 76 | 1013.5 |
| 20260507210627 | 14 | 337 | 3.2 | 3.2 | 0.00 | 0.23 | 0.23 | 80 | 1013.3 |
| 20260507210124 | 15 | 328 | 0.0 | 1.6 | 0.00 | 0.23 | 0.23 | 79 | 1013.4 |
| 20260507205620 | 15 | 322 | 0.0 | 0.0 | 0.00 | 0.23 | 0.23 | 76 | 1013.3 |
| 20260507205117 | 15 | 311 | 0.0 | 0.0 | 0.00 | 0.23 | 0.23 | 78 | 1013.4 |
| 20260507204613 | 15 | 331 | 3.2 | 3.2 | 0.00 | 0.23 | 0.23 | 76 | 1013.3 |
| 20260507204111 | 15 | 31 | 0.0 | 0.0 | 0.00 | 0.23 | 0.23 | 77 | 1013.3 |
| 20260507203608 | 15 | 329 | 0.0 | 0.0 | 0.00 | 0.23 | 0.23 | 75 | 1013.1 |
| 20260507203106 | 15 | 314 | 3.2 | 3.2 | 0.00 | 0.23 | 0.23 | 76 | 1013.2 |
| 20260507202601 | 15 | 58 | 8.0 | 9.7 | 0.00 | 0.23 | 0.23 | 77 | 1013.4 |
| 20260507202058 | 14 | 333 | 3.2 | 3.2 | 0.00 | 0.23 | 0.23 | 80 | 1013.4 |
| 20260507201553 | 14 | 328 | 0.0 | 1.6 | 0.00 | 0.23 | 0.23 | 81 | 1013.5 |
| 20260507201050 | 13 | 330 | 0.0 | 0.0 | 0.00 | 0.23 | 0.23 | 80 | 1013.7 |
| 20260507200545 | 13 | 326 | 1.6 | 1.6 | 0.00 | 0.23 | 0.23 | 81 | 1013.3 |
| 20260507200042 | 13 | 294 | 1.6 | 3.2 | 0.00 | 0.23 | 0.23 | 83 | 1013.6 |
| 20260507195539 | 13 | 331 | 1.6 | 1.6 | 0.00 | 0.23 | 0.23 | 84 | 1013.7 |
| 20260507195037 | 13 | 276 | 4.8 | 4.8 | 0.00 | 0.23 | 0.23 | 84 | 1013.8 |